GW5116 Weather Reports


time (UTC)temp
C
wind
direction
speed
KPH
gust
KPH
rain 1hr
cm
rain 24hr
cm
rain mn
cm
humidity
%
barometer
mb
20260508092928 0 261 0.0 0.0 0.00 0.00 0.00 99 1018.7
20260508092426 0 261 0.0 0.0 0.00 0.00 0.00 99 1018.5
20260508091924 0 261 0.0 0.0 0.00 0.00 0.00 99 1018.4
20260508091420 0 261 0.0 0.0 0.00 0.00 0.00 99 1018.6
20260508090918 0 261 0.0 0.0 0.00 0.00 0.00 99 1018.5
20260508090417 0 261 0.0 0.0 0.00 0.00 0.00 99 1018.3
20260508085911 0 261 0.0 0.0 0.00 0.00 0.00 99 1018.4
20260508085409 0 261 0.0 0.0 0.00 0.00 0.00 99 1018.3
20260508084905 0 261 0.0 0.0 0.00 0.00 0.00 99 1018.2
20260508084402 0 261 0.0 0.0 0.00 0.00 0.00 99 1018.4
20260508083900 0 261 0.0 0.0 0.00 0.00 0.00 99 1018.4
20260508083357 0 261 0.0 0.0 0.00 0.00 0.00 99 1018.3
20260508082856 0 261 0.0 0.0 0.00 0.00 0.00 99 1018.3
20260508082354 0 261 0.0 0.0 0.00 0.00 0.00 99 1018.4
20260508081851 0 261 0.0 0.0 0.00 0.00 0.00 99 1018.3
20260508081348 0 271 0.0 0.0 0.00 0.00 0.00 99 1018.3
20260508080845 0 270 0.0 0.0 0.00 0.00 0.00 99 1018.2
20260508080343 0 277 0.0 0.0 0.00 0.00 0.00 99 1018.4
20260508075839 0 277 0.0 0.0 0.00 0.00 0.00 99 1018.2
20260508075336 0 277 0.0 0.0 0.00 0.00 0.00 99 1018.3
20260508074834 0 276 0.0 0.0 0.00 0.00 0.00 99 1018.1
20260508074331 1 276 0.0 0.0 0.00 0.00 0.00 99 1018.3
20260508073828 1 276 0.0 0.0 0.00 0.00 0.00 99 1018.1
20260508073326 0 276 0.0 0.0 0.00 0.00 0.00 99 1018.2
20260508072822 0 276 0.0 0.0 0.00 0.00 0.00 99 1018.1
20260508072319 1 276 0.0 0.0 0.00 0.00 0.00 99 1018.1
20260508071816 1 276 0.0 0.0 0.00 0.00 0.00 99 1018.3
20260508071314 0 276 0.0 0.0 0.00 0.00 0.00 99 1018.4
20260508070811 1 276 0.0 0.0 0.00 0.00 0.00 99 1018.5
20260508070310 1 276 0.0 0.0 0.00 0.00 0.00 99 1018.3
20260508065807 1 276 0.0 0.0 0.00 0.00 0.00 99 1018.2
20260508065307 1 279 0.0 0.0 0.00 0.00 0.00 99 1018.4
20260508064803 1 279 0.0 0.0 0.00 0.00 0.00 99 1018.2
20260508064300 1 278 0.0 0.0 0.00 0.00 0.00 99 1018.4
20260508063757 1 278 0.0 0.0 0.00 0.00 0.00 99 1018.2
20260508063256 1 278 0.0 0.0 0.00 0.00 0.00 99 1018.3
20260508062752 1 278 0.0 0.0 0.00 0.00 0.00 99 1018.4
20260508062250 1 278 0.0 0.0 0.00 0.00 0.00 99 1018.3
20260508061746 1 279 0.0 0.0 0.00 0.00 0.00 99 1018.3
20260508061243 1 279 0.0 0.0 0.00 0.00 0.00 99 1018.3
20260508060740 1 279 0.0 0.0 0.00 0.00 0.00 99 1018.4
20260508060238 1 279 0.0 0.0 0.00 0.00 0.00 99 1018.3
20260508055733 1 279 0.0 0.0 0.00 0.00 0.00 99 1018.1
20260508055231 1 279 0.0 0.0 0.00 0.00 0.00 99 1018.3
20260508054727 1 279 0.0 0.0 0.00 0.00 0.00 99 1018.1
20260508054225 2 279 0.0 0.0 0.00 0.00 0.00 99 1018.3
20260508053722 1 279 0.0 0.0 0.00 0.00 0.00 99 1018.2
20260508053219 1 279 0.0 0.0 0.00 0.00 0.00 99 1018.0
20260508052716 2 279 0.0 0.0 0.00 0.00 0.00 99 1018.3
20260508052213 2 279 0.0 0.0 0.00 0.00 0.00 99 1018.3
20260508051709 2 277 0.0 0.0 0.00 0.00 0.00 99 1018.2
20260508051205 1 275 0.0 0.0 0.00 0.00 0.00 99 1018.4
20260508050701 2 275 0.0 0.0 0.00 0.00 0.00 99 1018.5
20260508050159 2 275 0.0 0.0 0.00 0.00 0.00 99 1018.5
20260508045654 2 275 0.0 0.0 0.00 0.00 0.00 99 1018.2
20260508045153 2 275 0.0 0.0 0.00 0.00 0.00 99 1018.5
20260508044649 2 275 0.0 0.0 0.00 0.00 0.00 99 1018.1
20260508044146 2 275 0.0 0.0 0.00 0.00 0.00 99 1018.3
20260508043642 2 265 0.0 0.0 0.00 0.00 0.00 99 1018.3
20260508043140 2 265 0.0 0.0 0.00 0.00 0.00 99 1018.3
20260508042636 2 267 0.0 0.0 0.00 0.00 0.00 99 1018.2
20260508042134 2 266 0.0 0.0 0.00 0.00 0.00 98 1018.3
20260508041630 3 272 0.0 0.0 0.00 0.00 0.00 98 1018.1
20260508041127 3 272 0.0 0.0 0.00 0.00 0.00 98 1018.1
20260508040623 2 263 0.0 0.0 0.00 0.00 0.00 98 1018.2
20260508040121 3 263 0.0 0.0 0.00 0.00 0.00 98 1018.1
20260508035618 3 263 0.0 0.0 0.00 0.00 0.00 98 1018.1
20260508035115 3 263 0.0 0.0 0.00 0.00 0.00 98 1018.1
20260508034612 3 263 0.0 0.0 0.00 0.00 0.00 97 1018.1
20260508034109 3 264 0.0 0.0 0.00 0.00 0.00 97 1018.1
20260508033606 3 264 0.0 0.0 0.00 0.00 0.00 97 1018.2
20260508033105 3 263 0.0 0.0 0.00 0.00 0.00 97 1018.1
20260508032601 3 264 0.0 0.0 0.00 0.00 0.00 97 1018.0
20260508032059 3 264 0.0 0.0 0.00 0.00 0.00 96 1017.9
20260508031555 3 264 0.0 0.0 0.00 0.00 0.00 96 1018.0
20260508031051 3 280 0.0 0.0 0.00 0.00 0.00 96 1018.0
20260508030548 3 280 0.0 0.0 0.00 0.00 0.00 95 1017.9
20260508030046 3 280 0.0 0.0 0.00 0.00 0.00 94 1017.8
20260508025542 3 279 0.0 0.0 0.00 0.00 0.00 94 1017.6
20260508025039 4 279 0.0 0.0 0.00 0.00 0.00 93 1017.5
20260508024535 4 279 0.0 0.0 0.00 0.00 0.00 93 1017.4
20260508024032 5 279 0.0 0.0 0.00 0.00 0.00 93 1017.5
20260508023528 5 279 0.0 0.0 0.00 0.00 0.00 91 1017.5
20260508023026 5 279 0.0 0.0 0.00 0.00 0.00 91 1017.3
20260508022522 5 276 0.0 0.0 0.00 0.00 0.00 91 1017.4
20260508022019 5 286 0.0 0.0 0.00 0.00 0.00 91 1017.3
20260508021515 5 272 0.0 0.0 0.00 0.00 0.00 92 1017.1
20260508021011 5 289 0.0 0.0 0.00 0.00 0.00 92 1017.1
20260508020509 5 289 0.0 0.0 0.00 0.00 0.00 90 1017.0
20260508020006 5 289 0.0 0.0 0.00 0.00 0.00 90 1016.8
20260508015503 6 289 0.0 0.0 0.00 0.00 0.00 89 1016.7
20260508015000 6 294 0.0 0.0 0.00 0.00 0.00 89 1016.8
20260508014456 6 296 0.0 0.0 0.00 0.00 0.00 89 1016.8
20260508013952 6 296 0.0 0.0 0.00 0.00 0.00 87 1016.7
20260508013448 6 294 0.0 0.0 0.00 0.00 0.00 86 1016.6
20260508012946 6 294 0.0 0.0 0.00 0.00 0.00 84 1016.5
20260508012443 7 294 0.0 0.0 0.00 0.00 0.00 84 1016.5
20260508011940 7 325 0.0 0.0 0.00 0.00 0.00 84 1016.4
20260508011438 7 280 0.0 0.0 0.00 0.00 0.00 80 1016.4
20260508010936 7 282 0.0 0.0 0.00 0.00 0.00 83 1016.1
20260508010432 8 260 0.0 1.6 0.00 0.00 0.00 80 1016.2
20260508005929 8 268 0.0 0.0 0.00 0.00 0.00 81 1015.9
20260508005426 8 280 0.0 0.0 0.00 0.00 0.00 78 1015.9
20260508004923 8 280 0.0 0.0 0.00 0.00 0.00 78 1016.0
20260508004419 9 277 0.0 0.0 0.00 0.00 0.00 77 1015.8
20260508003916 10 268 0.0 0.0 0.00 0.00 0.00 75 1015.7
20260508003412 10 259 0.0 0.0 0.00 0.00 0.00 73 1015.9
20260508002910 10 25 0.0 0.0 0.00 0.00 0.00 72 1015.8
20260508002406 11 258 0.0 3.2 0.00 0.00 0.00 69 1015.8
20260508001902 10 279 0.0 1.6 0.00 0.00 0.00 73 1015.5
20260508001358 11 35 0.0 1.6 0.00 0.00 0.00 72 1015.6
20260508000855 11 300 0.0 1.6 0.00 0.00 0.00 69 1015.4
20260508000351 11 72 0.0 1.6 0.00 0.00 0.00 70 1015.4
20260507235848 12 297 1.6 3.2 0.00 0.00 0.00 66 1015.2
20260507235346 12 141 0.0 0.0 0.00 0.00 0.00 64 1015.3
20260507234843 12 342 0.0 1.6 0.00 0.00 0.00 61 1015.2
20260507234339 13 79 0.0 0.0 0.00 0.00 0.00 60 1015.1
20260507233835 14 71 0.0 3.2 0.00 0.00 0.00 47 1014.9
20260507233333 13 95 0.0 1.6 0.00 0.00 0.00 56 1014.9
20260507232831 13 69 0.0 1.6 0.00 0.00 0.00 48 1015.2
20260507232327 14 168 0.0 0.0 0.00 0.00 0.00 54 1015.1
20260507231825 15 93 1.6 1.6 0.00 0.00 0.00 50 1014.8
20260507231321 15 67 1.6 3.2 0.00 0.00 0.00 44 1015.1
20260507230817 15 139 3.2 6.4 0.00 0.00 0.00 40 1014.7
20260507230315 16 69 6.4 6.4 0.00 0.00 0.00 44 1014.7
20260507225815 16 133 1.6 1.6 0.00 0.00 0.00 40 1014.7
20260507225312 16 35 4.8 6.4 0.00 0.00 0.00 37 1014.5
20260507224807 16 56 3.2 11.3 0.00 0.00 0.00 40 1014.8
20260507224304 16 316 4.8 6.4 0.00 0.00 0.00 39 1014.6
20260507223800 16 58 6.4 12.9 0.00 0.00 0.00 38 1014.5
20260507223257 16 204 0.0 6.4 0.00 0.00 0.00 38 1014.4
20260507222754 16 96 3.2 9.7 0.00 0.00 0.00 37 1014.6
20260507222250 16 50 6.4 12.9 0.00 0.00 0.00 38 1014.5
20260507221748 16 76 4.8 9.7 0.00 0.00 0.00 38 1014.5
20260507221243 17 97 6.4 9.7 0.00 0.00 0.00 37 1014.4
20260507220740 17 60 4.8 16.1 0.00 0.00 0.00 39 1014.4
20260507220239 17 114 4.8 9.7 0.00 0.00 0.00 36 1014.4
20260507215734 17 141 4.8 4.8 0.00 0.00 0.00 36 1014.2
20260507215232 17 72 4.8 9.7 0.00 0.00 0.00 37 1014.3
20260507214729 17 26 3.2 9.7 0.00 0.00 0.00 37 1014.2
20260507214226 17 48 6.4 6.4 0.00 0.00 0.00 40 1014.0
20260507213721 17 135 6.4 11.3 0.00 0.00 0.00 40 1014.0
20260507213219 16 59 3.2 4.8 0.00 0.00 0.00 45 1014.0
20260507212715 17 84 3.2 16.1 0.00 0.00 0.00 37 1014.0
20260507212212 17 94 1.6 4.8 0.00 0.00 0.00 37 1013.9
20260507211708 17 123 1.6 9.7 0.00 0.00 0.00 36 1013.8
20260507211204 17 62 3.2 4.8 0.00 0.00 0.00 38 1013.8
20260507210701 16 53 3.2 11.3 0.00 0.00 0.00 43 1013.8
20260507210158 16 52 6.4 14.5 0.00 0.00 0.00 40 1013.8
20260507205654 16 65 4.8 6.4 0.00 0.00 0.00 48 1013.8
20260507205151 15 318 3.2 4.8 0.00 0.00 0.00 47 1013.7
20260507204647 16 82 1.6 3.2 0.00 0.00 0.00 42 1013.7
20260507204145 16 319 3.2 14.5 0.00 0.00 0.00 40 1013.6
20260507203643 16 49 4.8 9.7 0.00 0.00 0.00 40 1013.8
20260507203140 16 282 9.7 16.1 0.00 0.00 0.00 40 1013.6
20260507202636 16 53 8.0 11.3 0.00 0.00 0.00 43 1013.7
20260507202132 16 70 3.2 9.7 0.00 0.00 0.00 43 1013.7
20260507201627 16 331 3.2 4.8 0.00 0.00 0.00 41 1013.8
20260507201125 16 62 9.7 20.9 0.00 0.00 0.00 42 1013.7
20260507200620 17 249 3.2 12.9 0.00 0.00 0.00 41 1013.8
20260507200116 17 64 6.4 6.4 0.00 0.00 0.00 43 1013.8
20260507195614 18 92 8.0 9.7 0.00 0.00 0.00 46 1014.0
20260507195111 16 63 3.2 4.8 0.00 0.00 0.00 45 1014.0
20260507194607 17 65 4.8 14.5 0.00 0.00 0.00 44 1014.1
20260507194103 17 85 1.6 4.8 0.00 0.00 0.00 44 1013.9
20260507193600 17 28 6.4 12.9 0.00 0.00 0.00 41 1014.3
20260507193057 17 10 6.4 14.5 0.00 0.00 0.00 41 1014.3
20260507192553 17 63 8.0 9.7 0.00 0.00 0.00 44 1014.4
20260507192050 17 36 4.8 11.3 0.00 0.00 0.00 45 1014.3
20260507191546 17 76 3.2 11.3 0.00 0.00 0.00 42 1014.2
20260507191043 17 111 1.6 9.7 0.00 0.00 0.00 45 1014.4
20260507190540 17 210 6.4 14.5 0.00 0.00 0.00 40 1014.5
20260507190039 17 42 4.8 11.3 0.00 0.00 0.00 44 1014.3
20260507185537 17 90 1.6 11.3 0.00 0.00 0.00 47 1014.4
20260507185033 17 27 9.7 11.3 0.00 0.00 0.00 47 1014.6
20260507184532 17 55 9.7 17.7 0.00 0.00 0.00 42 1014.6
20260507184029 16 65 4.8 9.7 0.00 0.00 0.00 52 1014.6
20260507183525 16 48 8.0 9.7 0.00 0.00 0.00 44 1014.6
20260507183022 17 11 6.4 9.7 0.00 0.00 0.00 45 1014.5
20260507182518 17 94 6.4 6.4 0.00 0.00 0.00 45 1014.4
20260507182014 17 53 4.8 9.7 0.00 0.00 0.00 44 1014.4
20260507181512 16 90 9.7 14.5 0.00 0.00 0.00 46 1014.6
20260507181008 16 262 0.0 4.8 0.00 0.00 0.00 43 1014.8
20260507180504 16 83 1.6 3.2 0.00 0.00 0.00 48 1014.6
20260507180000 15 71 8.0 12.9 0.00 0.00 0.00 48 1014.6
20260507175457 15 273 1.6 20.9 0.00 0.00 0.00 46 1014.8
20260507174955 17 203 3.2 4.8 0.00 0.00 0.00 43 1014.6
20260507174452 16 80 14.5 14.5 0.00 0.00 0.00 44 1014.6
20260507173949 15 67 3.2 9.7 0.00 0.00 0.00 46 1014.8
20260507173446 16 88 4.8 4.8 0.00 0.00 0.00 48 1015.1
20260507172943 16 41 0.0 4.8 0.00 0.00 0.00 45 1015.2
20260507172439 15 49 6.4 12.9 0.00 0.00 0.00 49 1015.1
20260507171936 16 88 4.8 9.7 0.00 0.00 0.00 47 1015.2
20260507171432 16 209 1.6 12.9 0.00 0.00 0.00 45 1015.4
20260507170930 16 36 3.2 11.3 0.00 0.00 0.00 47 1015.1
20260507170426 16 89 1.6 3.2 0.00 0.00 0.00 47 1015.2
20260507165922 15 27 3.2 3.2 0.00 0.00 0.00 56 1015.3
20260507165418 15 77 4.8 9.7 0.00 0.00 0.00 50 1015.4
20260507164914 17 101 3.2 6.4 0.00 0.00 0.00 50 1015.3
20260507164411 16 122 3.2 6.4 0.00 0.00 0.00 51 1015.2
20260507163908 15 4 1.6 6.4 0.00 0.00 0.00 48 1015.3
20260507163406 14 64 3.2 4.8 0.00 0.00 0.00 53 1015.6
20260507162902 14 4 6.4 11.3 0.00 0.00 0.00 52 1015.7
20260507162357 16 79 11.3 12.9 0.00 0.00 0.00 53 1015.7
20260507161855 16 33 3.2 6.4 0.00 0.00 0.00 54 1015.8
20260507161351 15 11 3.2 6.4 0.00 0.00 0.00 52 1015.8
20260507160848 14 35 4.8 12.9 0.00 0.00 0.00 52 1015.9
20260507160343 16 132 4.8 6.4 0.00 0.00 0.00 51 1015.9
20260507155840 15 227 0.0 0.0 0.00 0.00 0.00 48 1015.9
20260507155336 15 269 0.0 4.8 0.00 0.00 0.00 49 1015.8
20260507154833 14 179 3.2 6.4 0.00 0.00 0.00 52 1015.8
20260507154330 14 351 1.6 3.2 0.00 0.00 0.00 52 1016.1
20260507153827 15 45 3.2 3.2 0.00 0.00 0.00 60 1015.9
20260507153324 14 315 1.6 3.2 0.00 0.00 0.00 57 1015.8
20260507152820 14 351 0.0 4.8 0.00 0.00 0.00 51 1016.0
20260507152316 13 302 3.2 12.9 0.00 0.00 0.00 55 1016.2
20260507151813 13 17 1.6 12.9 0.00 0.00 0.00 60 1016.2
20260507151309 13 6 3.2 4.8 0.00 0.00 0.00 55 1016.0
20260507150806 13 292 0.0 1.6 0.00 0.00 0.00 55 1016.2
20260507150303 14 272 3.2 6.4 0.00 0.00 0.00 53 1016.1
20260507145759 15 86 1.6 1.6 0.00 0.00 0.00 56 1016.1
20260507145255 14 81 1.6 1.6 0.00 0.00 0.00 60 1016.2
20260507144752 13 29 1.6 3.2 0.00 0.00 0.00 56 1016.3
20260507144250 12 20 0.0 1.6 0.00 0.00 0.00 61 1016.2
20260507143746 13 55 6.4 6.4 0.00 0.00 0.00 58 1016.1
20260507143244 13 119 3.2 4.8 0.00 0.00 0.00 58 1016.1
20260507142739 14 27 0.0 3.2 0.00 0.00 0.00 57 1016.2
20260507142236 13 310 0.0 1.6 0.00 0.00 0.00 63 1016.5
20260507141732 12 252 0.0 3.2 0.00 0.00 0.00 64 1016.5
20260507141230 12 354 0.0 3.2 0.00 0.00 0.00 68 1016.7
20260507140725 12 21 0.0 1.6 0.00 0.00 0.00 73 1016.7
20260507140224 12 298 0.0 1.6 0.00 0.00 0.00 72 1016.7
20260507135720 12 5 0.0 4.8 0.00 0.00 0.00 66 1016.8
20260507135218 12 287 0.0 0.0 0.00 0.00 0.00 81 1016.9
20260507134714 11 72 3.2 3.2 0.00 0.00 0.00 82 1016.9
20260507134210 11 69 1.6 3.2 0.00 0.00 0.00 80 1016.8
20260507133706 11 298 0.0 3.2 0.00 0.00 0.00 80 1017.0
20260507133203 12 102 0.0 0.0 0.00 0.00 0.00 83 1017.0
20260507132701 12 108 0.0 0.0 0.00 0.00 0.00 83 1017.1
20260507132157 11 60 0.0 0.0 0.00 0.00 0.00 85 1017.1
20260507131654 11 3 0.0 0.0 0.00 0.00 0.00 86 1016.9
20260507131151 11 55 0.0 0.0 0.00 0.00 0.00 87 1017.0
20260507130647 11 60 0.0 0.0 0.00 0.00 0.00 87 1017.1
20260507130146 10 66 0.0 1.6 0.00 0.00 0.00 88 1017.0
20260507125644 10 74 0.0 1.6 0.00 0.00 0.00 91 1017.2
20260507125142 10 79 0.0 1.6 0.00 0.00 0.00 94 1017.1
20260507124637 10 32 0.0 0.0 0.00 0.00 0.00 93 1017.1
20260507124135 10 68 0.0 1.6 0.00 0.00 0.00 95 1016.9
20260507123633 10 52 0.0 0.0 0.00 0.00 0.00 96 1017.0
20260507123130 10 95 0.0 1.6 0.00 0.00 0.00 98 1017.2
20260507122625 10 86 0.0 0.0 0.00 0.00 0.00 99 1017.2
20260507122121 10 86 0.0 0.0 0.00 0.00 0.00 99 1017.2
20260507121618 10 86 0.0 0.0 0.00 0.00 0.00 99 1017.1
20260507121114 10 28 0.0 0.0 0.00 0.00 0.00 99 1017.1
20260507120610 10 89 0.0 0.0 0.00 0.00 0.00 99 1017.2
20260507120107 10 91 0.0 0.0 0.00 0.00 0.00 99 1017.3
20260507115603 10 340 0.0 0.0 0.00 0.00 0.00 99 1017.2
20260507115059 10 12 0.0 0.0 0.00 0.00 0.00 99 1017.3
20260507114555 10 23 0.0 0.0 0.00 0.00 0.00 99 1017.3
20260507114052 10 6 0.0 0.0 0.00 0.00 0.00 99 1017.2
20260507113549 9 7 0.0 0.0 0.00 0.00 0.00 99 1017.2
20260507113046 9 7 0.0 0.0 0.00 0.00 0.00 99 1017.0
20260507112544 9 6 0.0 0.0 0.00 0.00 0.00 99 1016.9
20260507112041 9 31 0.0 0.0 0.00 0.00 0.00 99 1016.8
20260507111538 9 72 0.0 0.0 0.00 0.00 0.00 99 1016.8
20260507111034 9 61 0.0 0.0 0.00 0.00 0.00 99 1016.6
20260507110531 9 61 0.0 0.0 0.00 0.00 0.00 99 1016.5
20260507110027 9 50 0.0 0.0 0.00 0.00 0.00 99 1016.7
20260507105525 9 251 0.0 0.0 0.00 0.00 0.00 99 1016.3
20260507105020 9 251 0.0 0.0 0.00 0.00 0.00 99 1016.5
20260507104518 9 250 0.0 0.0 0.00 0.00 0.00 99 1016.3
20260507104015 9 250 0.0 0.0 0.00 0.00 0.00 99 1016.4
20260507103510 9 250 0.0 0.0 0.00 0.00 0.00 99 1016.3
20260507103007 9 251 0.0 0.0 0.00 0.00 0.00 99 1016.1
20260507102504 9 252 0.0 1.6 0.00 0.00 0.00 99 1016.0
20260507102000 9 270 0.0 1.6 0.00 0.00 0.00 99 1016.2
20260507101455 9 322 0.0 0.0 0.00 0.00 0.00 99 1016.3
20260507100952 9 351 0.0 0.0 0.00 0.00 0.00 99 1016.2
20260507100449 9 6 0.0 0.0 0.00 0.00 0.00 99 1016.3
20260507095948 9 6 0.0 0.0 0.00 0.00 0.00 99 1016.5
20260507095445 9 6 0.0 0.0 0.00 0.00 0.00 99 1016.3
20260507094941 9 6 0.0 0.0 0.00 0.00 0.00 99 1016.3
20260507094437 9 6 0.0 0.0 0.00 0.00 0.00 99 1016.5
20260507093935 9 6 0.0 0.0 0.00 0.00 0.00 99 1016.4
20260507093432 9 6 0.0 0.0 0.00 0.00 0.00 99 1016.4